User: anonymous   Login
Location: Unspecified
(0.0000°N, 0.0000°E)
Time: 01:09:42
(UTC+01:00)
Language:

Timation 2 Rocket - Orbit

View from above orbital plane
View from above orbital plane
View from above satellite
View from above satellite

Ground track
Ground track

The orbit data is extracted from the following two-line orbital elements,

1 04159U 69082AB  18020.78941927 -.00000026  00000-0  25231-4 0  9998
2 04159  69.9625  68.5515 0115745 180.8657 179.2254 13.72389318417935
Epoch (UTC): 20 January 2018 18:56:45
Eccentricity: 0.0115745
inclination: 69.9625°
perigee height: 906 km
apogee height: 1076 km
right ascension of ascending node: 68.5515°
argument of perigee: 180.8657°
revolutions per day: 13.72389318
mean anomaly at epoch: 179.2254°
orbit number at epoch: 41793

The dashed part of the orbit path shows where the satellite is in the earth's shadow,  

DLR